Toluca Jose Maria, Mexico

9:10 PM CDT on April 26, 2018 (GMT -0500)
Lic Adolfo Lopez Mateos International

Weather History for MMTO - January, 2014

Change the Weather History Date:

Thursday, January 30, 2014

  Actual Average Record
Temperature  
Mean Temperature 48 °F -  
Max Temperature 69 °F 66 °F 73 °F (2013)
Min Temperature 28 °F 31 °F 24 °F (1998)
Degree Days  
Heating Degree Days 16    
Moisture  
Dew Point 32 °F    
Average Humidity 62    
Maximum Humidity 100    
Minimum Humidity 21    
Precipitation  
Precipitation 0.00 in - - ()
Sea Level Pressure  
Sea Level Pressure 30.19 in    
Wind  
Wind Speed 3 mph ()    
Max Wind Speed 16 mph    
Max Gust Speed -    
Visibility 6.8 miles    
Events      
Averages and records for this station are not official NWS values.
T = Trace of Precipitation, MM = Missing Value Source: Averaged Metar Reports

Daily Weather History Graph

Daily Weather History Graph

Search for Another Location

Airport or City:

Astronomy

Jan. 30, 2014 Rise Set
Actual Time 7:13 AM CST 6:30 PM CST
Civil Twilight 6:50 AM CST 6:52 PM CST
Nautical Twilight 6:24 AM CST 7:19 PM CST
Astronomical Twilight 5:57 AM CST 7:45 PM CST
Moon 6:46 AM CST (1/30) 6:34 PM CST (1/30)
Length of Visible Light 12h 02m
Length of Day
11h 16m
Waning Crescent, 0% of the Moon is Illuminated
Jan 30
Waning Crescent
Jan 30
New
Feb 6
First Quarter
Feb 14
Full
Feb 22
Last Quarter

Hourly Weather History & Observations

Time (CST) Temp. Windchill Dew Point Humidity Pressure Visibility Wind Dir Wind Speed Gust Speed Precip Events Conditions
12:40 AM 37.4 °F 34.9 °F 32.0 °F 81% 30.34 in 7.0 mi East 3.5 mph - N/A   Scattered Clouds
1:43 AM 35.6 °F 32.8 °F 30.2 °F 81% 30.34 in 7.0 mi NNW 3.5 mph - N/A   Partly Cloudy
2:42 AM 33.8 °F 30.8 °F 30.2 °F 87% 29.97 in 7.0 mi North 3.5 mph - N/A   Partly Cloudy
3:41 AM 33.8 °F 30.8 °F 30.2 °F 87% 30.33 in 7.0 mi SSW 3.5 mph - N/A   Partly Cloudy
4:42 AM 32.0 °F - 28.4 °F 87% 30.32 in 6.0 mi Calm Calm - N/A   Partly Cloudy
5:42 AM 32.0 °F - 30.2 °F 93% 30.04 in 6.0 mi Calm Calm - N/A   Partly Cloudy
6:42 AM 28.4 °F - 28.4 °F 100% 30.35 in 6.0 mi Calm Calm - N/A   Clear
7:44 AM 30.2 °F - 26.6 °F 86% 30.37 in 6.0 mi Calm Calm - N/A   Clear
8:42 AM 39.2 °F 37.0 °F 33.8 °F 81% 29.84 in 6.0 mi ESE 3.5 mph - N/A   Clear
9:43 AM 48.2 °F - 35.6 °F 62% 30.39 in 6.0 mi SSE 3.5 mph - N/A   Clear
10:43 AM 55.4 °F - 33.8 °F 44% 30.39 in 7.0 mi ENE 4.6 mph - N/A   Clear
11:43 AM 59.0 °F - 33.8 °F 39% 29.91 in 7.0 mi West 4.6 mph - N/A   Clear
12:48 PM 62.6 °F - 28.4 °F 27% 30.33 in 7.0 mi West 5.8 mph - N/A   Clear
1:42 PM 66.2 °F - 26.6 °F 23% 30.29 in 7.0 mi West 4.6 mph - N/A   Clear
2:42 PM 68.0 °F - 26.6 °F 21% 29.80 in 7.0 mi NW 6.9 mph - N/A   Partly Cloudy
3:42 PM 68.0 °F - 26.6 °F 21% 30.23 in 7.0 mi SSW 4.6 mph - N/A   Partly Cloudy
4:41 PM 69.8 °F - 28.4 °F 21% 30.23 in 7.0 mi NE 8.1 mph - N/A   Scattered Clouds
5:44 PM 62.6 °F - 35.6 °F 37% 29.87 in 7.0 mi SSE 16.1 mph - N/A   Mostly Cloudy
6:44 PM 57.2 °F - 39.2 °F 51% 30.28 in 7.0 mi South 8.1 mph - N/A   Scattered Clouds
7:45 PM 51.8 °F - 39.2 °F 62% 30.31 in 7.0 mi ESE 9.2 mph - N/A   Scattered Clouds
8:41 PM 50.0 °F - 39.2 °F 66% 29.99 in 7.0 mi NNW 4.6 mph - N/A   Scattered Clouds
9:44 PM 46.4 °F 42.9 °F 39.2 °F 76% 30.34 in 7.0 mi NNW 6.9 mph - N/A   Scattered Clouds
10:44 PM 42.8 °F - 37.4 °F 81% 30.35 in 7.0 mi Calm Calm - N/A   Scattered Clouds
11:48 PM 42.8 °F 41.1 °F 37.4 °F 81% 29.90 in 7.0 mi North 3.5 mph - N/A   Clear